KB9ZI Weather Reports


Display with metric or nautical units.
time (UTC)temp
F
wind
direction
speed
MPH
gust
MPH
rain 1hr
in
rain 24hr
in
rain mn
in
humidity
%
barometer
mb
20260906204307 77 147 0.0 0.0 0.00 0.01 0.01 84 1018.4
20260906204108 77 145 0.0 0.0 0.00 0.01 0.01 84 1018.3
20260906203931 77 154 0.0 0.0 0.00 0.01 0.01 85 1018.4
20260906203904 77 173 0.0 0.0 0.00 0.01 0.01 85 1018.4
20260906203728 77 165 0.0 0.0 0.00 0.01 0.01 85 1018.6
20260906203721 77 165 0.0 0.0 0.00 0.01 0.01 85 1018.4
20260906203654 77 165 0.0 0.0 0.00 0.01 0.01 85 1018.6
20260906203404 77 165 0.0 0.0 0.00 0.01 0.01 85 1018.4
20260906203204 77 165 0.0 0.0 0.00 0.01 0.01 85 1018.6
20260906202905 77 165 0.0 0.0 0.00 0.01 0.01 84 1018.7
20260906202701 76 186 0.0 0.0 0.00 0.01 0.01 84 1019.0
20260906202654 76 175 0.0 0.0 0.00 0.01 0.01 85 1018.9
20260906202626 76 186 0.0 0.0 0.00 0.01 0.01 84 1018.8
20260906202247 77 186 0.0 0.0 0.00 0.01 0.01 84 1019.0
20260906202209 77 186 0.0 0.0 0.00 0.01 0.01 85 1019.0
20260906202205 77 190 0.0 0.0 0.00 0.01 0.01 85 1019.1
20260906202142 77 188 0.0 0.0 0.00 0.01 0.01 84 1019.0
20260906201742 77 193 0.0 0.0 0.00 0.01 0.01 85 1019.0
20260906201441 77 209 0.0 0.0 0.00 0.01 0.01 85 1019.0
20260906201403 77 209 0.0 0.0 0.00 0.01 0.01 85 1019.0
20260906201238 77 166 0.0 0.0 0.00 0.01 0.01 84 1019.0
20260906201202 77 185 0.0 0.0 0.00 0.01 0.01 84 1018.9
20260906201140 77 173 0.0 0.0 0.00 0.01 0.01 85 1019.0
20260906200838 77 185 0.0 0.0 0.00 0.01 0.01 84 1019.0
20260906200734 77 200 0.0 0.0 0.00 0.01 0.01 84 1019.0
20260906200436 77 197 0.0 0.0 0.00 0.01 0.01 84 1018.9
20260906200400 77 214 0.0 0.0 0.00 0.01 0.01 84 1018.9
20260906200237 77 196 0.0 0.0 0.00 0.01 0.01 84 1018.9
20260906200150 77 173 0.0 0.0 0.00 0.01 0.01 84 1018.9
20260906200131 77 182 0.0 0.0 0.00 0.01 0.01 84 1018.9
20260906195809 77 186 0.0 0.0 0.00 0.01 0.01 84 1018.9
20260906195609 77 162 0.0 0.0 0.00 0.01 0.01 84 1018.8
20260906195504 77 197 0.0 0.0 0.00 0.01 0.01 83 1018.7
20260906195351 77 197 0.0 0.0 0.00 0.01 0.01 83 1018.7
20260906195301 77 166 0.0 0.0 0.00 0.01 0.01 83 1018.7
20260906195151 77 176 0.0 0.0 0.00 0.01 0.01 84 1018.7
20260906195125 77 213 0.0 0.0 0.00 0.01 0.01 84 1018.7
20260906194805 77 154 0.0 0.0 0.00 0.01 0.01 84 1018.8
20260906194603 77 166 0.0 0.0 0.00 0.01 0.01 84 1018.7
20260906194403 77 171 0.0 0.0 0.00 0.01 0.01 84 1018.7
20260906194348 77 171 0.0 0.0 0.00 0.01 0.01 84 1018.7
20260906194234 77 179 0.0 0.0 0.00 0.01 0.01 84 1018.7
20260906194203 77 199 0.0 0.0 0.00 0.01 0.01 84 1018.7
20260906194136 77 162 0.0 0.0 0.00 0.01 0.01 84 1018.7
20260906194116 77 169 0.0 0.0 0.00 0.01 0.01 84 1018.8
20260906193550 77 175 0.0 0.0 0.00 0.01 0.01 84 1018.8
20260906193352 77 176 0.0 0.0 0.00 0.01 0.01 84 1018.6
20260906193148 77 155 0.0 0.0 0.00 0.01 0.01 84 1018.7
20260906192948 77 178 0.0 0.0 0.00 0.01 0.01 84 1018.7
20260906192849 77 166 0.0 0.0 0.00 0.01 0.01 84 1018.7
20260906192749 77 180 0.0 0.0 0.00 0.01 0.01 84 1018.7
20260906192550 77 180 0.0 0.0 0.00 0.01 0.01 84 1018.7
20260906192349 77 180 0.0 0.0 0.00 0.01 0.01 84 1018.7
20260906192253 77 180 0.0 0.0 0.00 0.01 0.01 84 1018.7
20260906191949 77 173 0.0 0.0 0.00 0.01 0.01 83 1018.8
20260906191853 77 138 0.0 0.0 0.00 0.01 0.01 83 1018.8
20260906191848 77 161 0.0 0.0 0.00 0.01 0.01 83 1018.7
20260906191549 77 176 0.0 0.0 0.00 0.01 0.01 84 1018.7
20260906191351 77 217 0.0 0.0 0.00 0.01 0.01 84 1018.7
20260906191148 77 316 0.0 0.0 0.00 0.01 0.01 84 1018.7
20260906190948 77 28 0.0 0.0 0.00 0.01 0.01 84 1018.8
20260906190855 77 25 0.0 0.0 0.00 0.01 0.01 85 1018.7
20260906190849 77 27 0.0 0.0 0.00 0.01 0.01 85 1018.7
20260906190550 77 180 0.0 0.0 0.00 0.01 0.01 84 1018.7
20260906190448 77 180 0.0 0.0 0.00 0.01 0.01 84 1018.7
20260906190349 77 180 0.0 0.0 0.00 0.01 0.01 84 1018.7
20260906190154 77 24 0.0 0.0 0.00 0.01 0.01 84 1018.8
20260906190149 77 83 0.0 0.0 0.00 0.01 0.01 84 1018.7
20260906190116 77 130 0.0 0.0 0.00 0.01 0.01 84 1018.8
20260906185748 77 166 0.0 0.0 0.00 0.01 0.01 84 1018.8
20260906185551 77 32 0.0 0.0 0.00 0.01 0.01 85 1018.6
20260906185452 77 183 0.0 0.0 0.00 0.01 0.01 85 1018.4
20260906185349 77 183 0.0 0.0 0.00 0.01 0.01 85 1018.4
20260906185148 77 16 0.0 0.0 0.00 0.01 0.01 85 1018.4
20260906185043 77 197 0.0 0.0 0.00 0.01 0.01 84 1018.4
20260906184852 77 200 0.0 0.0 0.00 0.01 0.01 84 1018.4
20260906184748 77 192 0.0 0.0 0.00 0.01 0.01 84 1018.4
20260906184646 77 24 0.0 0.0 0.00 0.01 0.01 85 1018.6
20260906184630 77 20 0.0 0.0 0.00 0.01 0.01 84 1018.6
20260906184601 77 24 0.0 0.0 0.00 0.01 0.01 85 1018.6
20260906184143 77 189 0.0 0.0 0.00 0.01 0.01 85 1018.4
20260906183948 77 34 0.0 0.0 0.00 0.01 0.01 85 1018.3
20260906183848 76 216 0.0 0.0 0.00 0.01 0.01 85 1018.3
20260906183748 76 216 0.0 0.0 0.00 0.01 0.01 85 1018.3
20260906183651 76 151 0.0 0.0 0.00 0.01 0.01 84 1018.4
20260906183634 76 183 0.0 0.0 0.00 0.01 0.01 84 1018.3
20260906183601 76 151 0.0 0.0 0.00 0.01 0.01 84 1018.4
20260906183249 76 127 0.0 0.0 0.00 0.01 0.01 84 1018.3
20260906183054 76 173 0.0 0.0 0.00 0.01 0.01 85 1018.6
20260906182849 76 172 0.0 0.0 0.00 0.01 0.01 85 1018.6
20260906182749 76 244 0.0 0.0 0.00 0.01 0.01 85 1018.6
20260906182642 76 182 0.0 0.0 0.00 0.01 0.01 84 1018.4
20260906182629 76 34 0.0 0.0 0.00 0.01 0.01 85 1018.6
20260906182601 76 182 0.0 0.0 0.00 0.01 0.01 84 1018.4
20260906182148 76 171 0.0 0.0 0.00 0.01 0.01 84 1018.4
20260906181950 76 166 0.0 0.0 0.00 0.01 0.01 84 1018.3
20260906181854 77 162 0.0 0.0 0.00 0.01 0.01 85 1018.4
20260906181849 76 172 0.0 0.0 0.00 0.01 0.01 84 1018.3
20260906181648 76 138 0.0 0.0 0.00 0.01 0.01 85 1018.4
20260906181349 76 27 0.0 0.0 0.00 0.01 0.01 85 1018.4
20260906181148 76 288 0.0 0.0 0.00 0.01 0.01 85 1018.6
20260906180948 76 154 0.0 0.0 0.00 0.01 0.01 86 1018.7
20260906180848 76 134 0.0 0.0 0.00 0.01 0.01 85 1018.7
20260906180747 76 28 0.0 0.0 0.00 0.01 0.01 85 1018.7
20260906180640 76 282 0.0 0.0 0.00 0.01 0.01 86 1018.8
20260906180626 76 24 0.0 0.0 0.00 0.01 0.01 86 1018.8
20260906180148 76 20 0.0 0.0 0.00 0.01 0.01 86 1018.7
20260906180052 76 320 0.0 0.0 0.00 0.01 0.01 86 1018.7
20260906175848 76 20 0.0 0.0 0.00 0.01 0.01 85 1018.7
20260906175748 76 68 0.0 0.0 0.00 0.01 0.01 85 1018.7
20260906175730 76 62 0.0 0.0 0.00 0.01 0.01 85 1018.6
20260906175640 76 37 0.0 0.0 0.00 0.01 0.01 86 1018.6
20260906175601 76 37 0.0 0.0 0.00 0.01 0.01 86 1018.6
20260906175149 76 24 0.0 0.0 0.00 0.01 0.01 86 1018.6
20260906174950 76 35 0.0 0.0 0.00 0.01 0.01 86 1018.4
20260906174850 76 49 0.0 0.0 0.00 0.01 0.01 86 1018.4
20260906174749 76 42 0.0 0.0 0.00 0.01 0.01 87 1018.4
20260906174737 76 31 0.0 0.0 0.00 0.01 0.01 86 1018.4
20260906174646 76 30 0.0 0.0 0.00 0.01 0.01 86 1018.3
20260906174601 76 30 0.0 0.0 0.00 0.01 0.01 86 1018.3
20260906174246 76 329 0.0 0.0 0.00 0.01 0.01 87 1018.6
20260906173948 75 45 0.0 0.0 0.00 0.01 0.01 87 1018.4
20260906173849 75 283 0.0 0.0 0.00 0.01 0.01 86 1018.4
20260906173748 75 20 0.0 0.0 0.00 0.01 0.01 86 1018.6
20260906173551 75 175 0.0 0.0 0.00 0.01 0.01 86 1018.6
20260906173349 75 44 0.0 0.0 0.00 0.01 0.01 87 1018.6
20260906173249 75 76 0.0 0.0 0.00 0.01 0.01 87 1018.7
20260906172950 75 188 0.0 0.0 0.00 0.01 0.01 87 1018.8
20260906172853 75 32 0.0 0.0 0.00 0.01 0.01 87 1018.7
20260906172848 75 54 0.0 0.0 0.00 0.01 0.01 87 1018.8
20260906172550 75 0 0.0 0.0 0.00 0.01 0.01 87 1018.9
20260906172351 75 237 0.0 0.0 0.00 0.01 0.01 87 1018.9
20260906172148 75 39 0.0 0.0 0.00 0.01 0.01 87 1018.9
20260906172139 75 28 0.0 0.0 0.00 0.01 0.01 88 1018.9
20260906172113 75 54 0.0 0.0 0.00 0.01 0.01 88 1018.9
20260906171748 75 130 0.0 0.0 0.00 0.01 0.01 88 1019.0
20260906171649 75 49 0.0 0.0 0.00 0.01 0.01 88 1019.0
20260906171349 75 52 0.0 0.0 0.00 0.01 0.01 88 1019.1
20260906171250 75 24 0.0 0.0 0.00 0.01 0.01 88 1019.0
20260906171138 75 97 0.0 0.0 0.00 0.01 0.01 89 1019.0
20260906171113 75 227 0.0 0.0 0.00 0.01 0.01 88 1019.0
20260906170750 75 130 0.0 0.0 0.00 0.01 0.01 89 1019.0
20260906170549 75 51 0.0 0.0 0.00 0.01 0.01 89 1019.0
20260906170349 75 110 0.0 0.0 0.00 0.01 0.01 89 1019.0
20260906170251 74 72 0.0 0.0 0.00 0.01 0.01 89 1019.0
20260906170142 74 0 0.0 0.0 0.00 0.01 0.01 89 1019.1
20260906170138 74 353 0.0 0.0 0.00 0.01 0.01 89 1019.2
20260906170111 74 27 0.0 0.0 0.00 0.01 0.01 89 1019.0
20260906165550 74 172 0.0 0.0 0.00 0.01 0.01 89 1019.3
20260906165349 74 21 0.0 0.0 0.00 0.01 0.01 89 1019.3
20260906165148 74 195 0.0 0.0 0.00 0.01 0.01 89 1019.3
20260906164947 74 186 0.0 0.0 0.00 0.01 0.01 89 1019.3
20260906164853 74 186 0.0 0.0 0.00 0.01 0.01 89 1019.3
20260906164849 74 186 0.0 0.0 0.00 0.01 0.01 89 1019.3
20260906164549 74 82 0.0 0.0 0.00 0.01 0.01 90 1019.4
20260906164349 74 195 0.0 0.0 0.00 0.01 0.01 89 1019.4
20260906164148 74 44 0.0 0.0 0.00 0.01 0.01 89 1019.4
20260906164134 74 32 0.0 0.0 0.00 0.01 0.01 89 1019.4
20260906164110 74 32 0.0 0.0 0.00 0.01 0.01 89 1019.4
20260906163750 74 32 0.0 0.0 0.00 0.01 0.01 89 1019.4
20260906163650 74 48 0.0 0.0 0.00 0.01 0.01 89 1019.4
20260906163351 74 41 0.0 0.0 0.00 0.01 0.01 89 1019.3
20260906163252 74 35 0.0 0.0 0.00 0.01 0.01 90 1019.3
20260906163134 74 41 0.0 0.0 0.00 0.01 0.01 89 1019.2
20260906163112 74 76 0.0 0.0 0.00 0.01 0.01 89 1019.2
20260906162747 74 41 0.0 0.0 0.00 0.01 0.01 89 1019.2
20260906162548 74 0 0.0 0.0 0.00 0.01 0.01 89 1019.1
20260906162351 74 14 0.0 0.0 0.00 0.01 0.01 89 1019.1
20260906162246 74 76 0.0 0.0 0.00 0.01 0.01 90 1019.1
20260906162139 74 39 0.0 0.0 0.00 0.01 0.01 90 1019.2
20260906162135 74 56 0.0 0.0 0.00 0.01 0.01 90 1019.3
20260906162111 74 109 0.0 0.0 0.00 0.01 0.01 90 1019.2
20260906161549 74 42 0.0 0.0 0.00 0.01 0.01 90 1019.3
20260906161349 74 37 0.0 0.0 0.00 0.01 0.01 90 1019.3
20260906161150 74 49 0.0 0.0 0.00 0.01 0.01 91 1019.3
20260906161141 74 165 0.0 0.0 0.00 0.01 0.01 91 1019.3
20260906161136 74 80 0.0 0.0 0.00 0.01 0.01 91 1019.3
20260906161112 74 159 0.0 0.0 0.00 0.01 0.01 91 1019.3
20260906160548 73 32 0.0 0.0 0.00 0.01 0.01 91 1019.3
20260906160350 73 20 0.0 0.0 0.00 0.01 0.01 91 1019.3
20260906160147 73 182 0.0 0.0 0.00 0.01 0.01 91 1019.3
20260906155949 73 37 0.0 0.0 0.00 0.01 0.01 91 1019.3
20260906155849 73 175 0.0 0.0 0.00 0.01 0.01 91 1019.4
20260906155747 73 0 0.0 0.0 0.00 0.01 0.01 91 1019.3
20260906155544 73 331 0.0 0.0 0.00 0.01 0.01 91 1019.2
20260906155450 73 172 0.0 0.0 0.00 0.01 0.01 92 1019.2
20260906155346 73 172 0.0 0.0 0.00 0.01 0.01 92 1019.2
20260906155243 73 20 0.0 0.0 0.00 0.01 0.01 92 1019.1
20260906154944 73 164 0.0 0.0 0.00 0.01 0.01 92 1019.1
20260906154845 73 52 0.0 0.0 0.00 0.01 0.01 93 1019.1
20260906154746 73 168 0.0 0.0 0.00 0.01 0.01 93 1019.1
20260906154540 73 162 0.0 0.0 0.00 0.01 0.01 93 1019.1
20260906154346 73 55 0.0 0.0 0.00 0.01 0.01 93 1019.2
20260906154339 73 76 0.0 0.0 0.00 0.01 0.01 93 1019.2
20260906154138 73 175 0.0 0.0 0.00 0.01 0.01 93 1019.2
20260906154033 73 217 0.0 0.0 0.00 0.01 0.01 93 1019.2
20260906153845 73 217 0.0 0.0 0.00 0.01 0.01 93 1019.2
20260906153828 73 137 0.0 0.0 0.00 0.01 0.01 93 1019.1
20260906153530 73 48 0.0 0.0 0.00 0.01 0.01 93 1019.1
20260906153345 72 47 0.0 0.0 0.00 0.01 0.01 94 1019.1
20260906153332 72 44 0.0 0.0 0.00 0.01 0.01 94 1019.1
20260906153130 72 31 0.0 0.0 0.00 0.01 0.01 94 1019.1
20260906152930 72 41 0.0 0.0 0.00 0.01 0.01 94 1019.2
20260906152844 72 48 0.0 0.0 0.00 0.01 0.01 94 1019.2
20260906152731 72 1 0.0 0.0 0.00 0.01 0.01 95 1019.2
20260906152635 72 32 0.0 0.0 0.00 0.01 0.01 95 1019.3
20260906152348 72 202 0.0 0.0 0.00 0.01 0.01 94 1019.3
20260906152331 72 226 0.0 0.0 0.00 0.01 0.01 94 1019.3
20260906152132 72 158 0.0 0.0 0.00 0.01 0.01 95 1019.4
20260906151929 71 158 0.0 0.0 0.00 0.01 0.01 95 1019.5
20260906151845 71 182 0.0 0.0 0.00 0.01 0.01 95 1019.5
20260906151727 71 17 0.0 0.0 0.00 0.01 0.01 95 1019.5
20260906151622 71 227 0.0 0.0 0.00 0.01 0.01 95 1019.5
20260906151344 71 204 0.0 0.0 0.00 0.01 0.01 95 1019.4
20260906151325 71 13 0.0 0.0 0.00 0.01 0.01 95 1019.5
20260906151234 71 66 0.0 0.0 0.00 0.01 0.01 95 1019.5
20260906150903 71 69 0.0 0.0 0.00 0.01 0.01 95 1019.5
20260906150845 71 41 0.0 0.0 0.00 0.01 0.01 95 1019.5
20260906150703 71 169 0.0 0.0 0.00 0.01 0.01 95 1019.6
20260906150509 71 38 0.0 0.0 0.00 0.01 0.01 96 1019.5
20260906150344 71 38 0.0 0.0 0.00 0.01 0.01 96 1019.5
20260906150305 71 27 0.0 0.0 0.00 0.01 0.01 96 1019.4
20260906150207 71 178 0.0 0.0 0.00 0.01 0.01 96 1019.5
20260906145905 71 62 0.0 0.0 0.00 0.01 0.01 96 1019.5
20260906145845 71 61 0.0 0.0 0.00 0.01 0.01 96 1019.5
20260906145806 71 25 0.0 0.0 0.00 0.01 0.01 96 1019.5
20260906145506 71 28 0.0 0.0 0.00 0.01 0.01 96 1019.4
20260906145345 71 25 0.0 0.0 0.00 0.01 0.01 96 1019.5
20260906145306 71 32 0.0 0.0 0.00 0.01 0.01 96 1019.5
20260906145102 71 37 0.0 0.0 0.00 0.01 0.01 96 1019.4
20260906144903 70 47 0.0 0.0 0.00 0.01 0.01 96 1019.4
20260906144845 70 193 0.0 0.0 0.00 0.01 0.01 96 1019.4
20260906144801 70 37 0.0 0.0 0.00 0.01 0.01 96 1019.3
20260906144512 70 159 0.0 0.0 0.00 0.01 0.01 96 1019.4
20260906144503 70 90 0.0 0.0 0.00 0.01 0.01 96 1019.3
20260906144340 70 80 0.0 0.0 0.00 0.01 0.01 96 1019.4
20260906144142 70 38 0.0 0.0 0.00 0.01 0.01 96 1019.3
20260906144132 70 159 0.0 0.0 0.00 0.01 0.01 96 1019.3
20260906144059 70 79 0.0 0.0 0.00 0.01 0.01 96 1019.3
20260906143702 70 147 0.0 0.0 0.00 0.01 0.01 96 1019.4
20260906143504 70 44 0.0 0.0 0.00 0.01 0.01 96 1019.4
20260906143339 70 31 0.0 0.0 0.00 0.01 0.01 96 1019.3
20260906143303 70 49 0.0 0.0 0.00 0.01 0.01 96 1019.3
20260906143219 70 39 0.0 0.0 0.00 0.01 0.01 96 1019.3
20260906143153 70 34 0.0 0.0 0.00 0.01 0.01 96 1019.4
20260906143128 70 37 0.0 0.0 0.00 0.01 0.01 96 1019.4
20260906142704 70 35 0.0 0.0 0.00 0.01 0.01 96 1019.4
20260906142504 70 45 0.0 0.0 0.00 0.01 0.01 96 1019.3
20260906142338 70 86 0.0 0.0 0.00 0.01 0.01 96 1019.4
20260906142306 70 28 0.0 0.0 0.00 0.01 0.01 96 1019.4
20260906142143 70 8 0.0 0.0 0.00 0.01 0.01 96 1019.3
20260906142130 70 41 0.0 0.0 0.00 0.01 0.01 96 1019.4
20260906142053 70 8 0.0 0.0 0.00 0.01 0.01 96 1019.4
20260906141653 70 73 0.0 0.0 0.00 0.01 0.01 96 1019.4
20260906141646 70 138 0.0 0.0 0.00 0.01 0.01 96 1019.3
20260906141335 70 30 0.0 0.0 0.00 0.01 0.01 96 1019.2
20260906141246 70 42 0.0 0.0 0.00 0.01 0.01 96 1019.2
20260906141049 70 37 0.0 0.0 0.00 0.01 0.01 96 1019.2
20260906140836 70 131 0.0 0.0 0.00 0.01 0.01 96 1019.2
20260906140648 70 27 0.0 0.0 0.00 0.01 0.01 96 1019.2
20260906140447 70 27 0.0 0.0 0.00 0.01 0.01 96 1019.1
20260906140335 70 45 0.0 0.0 0.00 0.01 0.01 96 1019.2
20260906140243 70 45 0.0 0.0 0.00 0.01 0.01 96 1019.2
20260906140038 70 100 0.0 0.0 0.00 0.01 0.01 97 1019.2
20260906135833 70 107 0.0 0.0 0.00 0.01 0.01 97 1019.2
20260906135637 70 28 0.0 0.0 0.00 0.01 0.01 97 1019.3
20260906135441 70 144 0.0 0.0 0.00 0.01 0.01 97 1019.3
20260906135436 70 166 0.0 0.0 0.00 0.01 0.01 97 1019.4
20260906135335 70 152 0.0 0.0 0.00 0.01 0.01 97 1019.3
20260906135033 70 234 0.0 0.0 0.00 0.01 0.01 97 1019.3
20260906134837 70 97 0.0 0.0 0.00 0.01 0.01 97 1019.2
20260906134831 70 17 0.0 0.0 0.00 0.01 0.01 97 1019.2
20260906134633 70 116 0.0 0.0 0.00 0.01 0.01 97 1019.2
20260906134431 70 35 0.0 0.0 0.00 0.01 0.01 97 1019.2
20260906134331 70 35 0.0 0.0 0.00 0.01 0.01 97 1019.2
20260906134232 70 30 0.0 0.0 0.00 0.01 0.01 97 1019.1
20260906134035 70 41 0.0 0.0 0.00 0.01 0.01 97 1019.1
20260906134031 70 317 0.0 0.0 0.00 0.01 0.01 97 1019.1
20260906133833 70 41 0.0 0.0 0.00 0.01 0.01 97 1019.1
20260906133634 70 110 0.0 0.0 0.00 0.01 0.01 97 1019.0
20260906133435 70 209 0.0 0.0 0.00 0.01 0.01 97 1019.0
20260906133334 70 209 0.0 0.0 0.00 0.01 0.01 97 1019.0
20260906133235 70 209 0.0 0.0 0.00 0.01 0.01 97 1019.0
20260906133004 70 31 0.0 0.0 0.00 0.01 0.01 97 1018.9
20260906132832 70 47 0.0 0.0 0.00 0.01 0.01 97 1018.9
20260906132804 70 127 0.0 0.0 0.00 0.01 0.01 97 1018.9
20260906132604 70 42 0.0 0.0 0.00 0.01 0.01 97 1018.9
20260906132349 70 38 0.0 0.0 0.00 0.01 0.01 97 1019.0
20260906132331 70 38 0.0 0.0 0.00 0.01 0.01 97 1018.9
20260906132251 70 17 0.0 0.0 0.00 0.01 0.01 97 1018.9
20260906131950 70 14 0.0 0.0 0.00 0.01 0.01 97 1018.9
20260906131830 70 13 0.0 0.0 0.00 0.01 0.01 97 1018.9
20260906131748 70 13 0.0 0.0 0.00 0.01 0.01 97 1018.9
20260906131547 70 49 0.0 0.0 0.00 0.01 0.01 97 1018.8
20260906131331 70 37 0.0 0.0 0.00 0.01 0.01 97 1018.7
20260906131253 70 35 0.0 0.0 0.00 0.01 0.01 97 1018.7
20260906130949 69 47 0.0 0.0 0.00 0.01 0.01 97 1018.6
20260906130834 69 47 0.0 0.0 0.00 0.01 0.01 97 1018.6
20260906130827 69 47 0.0 0.0 0.00 0.01 0.01 97 1018.4
20260906130529 69 54 0.0 0.0 0.00 0.01 0.01 97 1018.4
20260906130331 69 16 0.0 0.0 0.00 0.01 0.01 97 1018.6
20260906130130 69 37 0.0 0.0 0.00 0.01 0.01 97 1018.6
20260906125930 69 32 0.0 0.0 0.00 0.01 0.01 97 1018.3
20260906125839 69 32 0.0 0.0 0.00 0.01 0.01 97 1018.4
20260906125831 69 32 0.0 0.0 0.00 0.01 0.01 97 1018.4
20260906125530 69 32 0.0 0.0 0.00 0.01 0.01 97 1018.4
20260906125439 69 31 0.0 0.0 0.00 0.01 0.01 97 1018.4
20260906125333 69 31 0.0 0.0 0.00 0.01 0.01 97 1018.4
20260906125104 69 31 0.0 0.0 0.00 0.01 0.01 97 1018.4
20260906124855 69 44 0.0 0.0 0.00 0.01 0.01 97 1018.4
20260906124818 69 38 0.0 0.0 0.00 0.01 0.01 97 1018.4
20260906124657 69 45 0.0 0.0 0.00 0.01 0.01 97 1018.3
20260906124455 69 47 0.0 0.0 0.00 0.01 0.01 97 1018.4
20260906124355 69 47 0.0 0.0 0.00 0.01 0.01 97 1018.3
20260906124314 69 47 0.0 0.0 0.00 0.01 0.01 97 1018.3
20260906124150 69 47 0.0 0.0 0.00 0.01 0.01 97 1018.4
20260906123855 69 39 0.0 0.0 0.00 0.01 0.01 97 1018.4
20260906123811 69 38 0.0 0.0 0.00 0.01 0.01 97 1018.4
20260906123651 69 37 0.0 0.0 0.00 0.01 0.01 97 1018.4
20260906123545 69 37 0.0 0.0 0.00 0.01 0.01 97 1018.4
20260906123309 68 35 0.0 0.0 0.00 0.01 0.01 97 1018.3
20260906123247 68 35 0.0 0.0 0.00 0.01 0.01 97 1018.3
20260906123049 68 44 0.0 0.0 0.00 0.01 0.01 97 1018.6
20260906122849 68 44 0.0 0.0 0.00 0.01 0.01 97 1018.4
20260906122804 68 44 0.0 0.0 0.00 0.01 0.01 97 1018.4
20260906122745 68 44 0.0 1.0 0.00 0.01 0.01 97 1018.3
20260906122433 68 45 0.0 1.0 0.00 0.01 0.01 97 1018.4
20260906122300 68 45 0.0 1.0 0.00 0.01 0.01 97 1018.4
20260906122231 68 45 0.0 1.0 0.00 0.01 0.01 97 1018.4
20260906122129 68 45 0.0 2.0 0.00 0.01 0.01 97 1018.4
20260906121832 68 45 0.0 2.0 0.00 0.01 0.01 97 1018.4
20260906121800 68 45 0.0 2.0 0.00 0.01 0.01 97 1018.4
20260906121630 68 45 0.0 2.0 0.00 0.01 0.01 97 1018.4
20260906121434 68 45 0.0 2.0 0.00 0.01 0.01 97 1018.3
20260906121336 68 45 0.0 2.0 0.00 0.01 0.01 97 1018.3
20260906121301 68 45 0.0 2.0 0.00 0.01 0.01 97 1018.4
20260906121035 68 47 0.0 2.0 0.00 0.01 0.01 97 1018.3
20260906120831 68 47 0.0 2.0 0.00 0.01 0.01 97 1018.3
20260906120801 68 47 0.0 2.0 0.00 0.01 0.01 97 1018.3
20260906120730 68 45 0.0 2.0 0.00 0.01 0.01 97 1018.4
20260906120555 68 47 0.0 2.0 0.00 0.01 0.01 97 1018.4
20260906120537 68 45 0.0 2.0 0.00 0.01 0.01 97 1018.4
20260906120230 68 47 0.0 2.0 0.00 0.01 0.01 97 1018.3
20260906120100 68 47 0.0 2.0 0.00 0.01 0.01 97 1018.2
20260906120052 68 47 0.0 2.0 0.00 0.01 0.01 97 1018.3
20260906120022 68 47 0.0 2.0 0.00 0.01 0.01 97 1018.2
20260906115735 68 47 0.0 2.0 0.00 0.01 0.01 97 1018.1
20260906115404 68 47 0.0 2.0 0.00 0.01 0.01 97 1018.2
20260906115305 68 47 0.0 2.0 0.00 0.01 0.01 97 1018.2
20260906115203 68 47 0.0 1.0 0.00 0.01 0.01 97 1018.2
20260906115056 68 47 0.0 2.0 0.00 0.01 0.01 96 1018.1
20260906115043 68 47 0.0 2.0 0.00 0.01 0.01 96 1018.2
20260906114602 68 47 0.0 2.0 0.00 0.01 0.01 96 1018.3
20260906114402 68 47 0.0 2.0 0.00 0.01 0.01 96 1018.2
20260906114308 68 47 0.0 2.0 0.00 0.01 0.01 96 1018.1
20260906114301 68 47 0.0 2.0 0.00 0.01 0.01 96 1018.2
20260906114100 68 47 0.0 1.0 0.00 0.01 0.01 96 1018.1
20260906114044 68 47 0.0 1.0 0.00 0.01 0.01 97 1018.2
20260906114012 68 47 0.0 1.0 0.00 0.01 0.01 96 1018.1
20260906113603 68 47 0.0 1.0 0.00 0.01 0.01 97 1018.1
20260906113505 67 47 0.0 1.0 0.00 0.01 0.01 96 1018.1
20260906113303 67 47 0.0 1.0 0.00 0.01 0.01 96 1018.1
20260906113203 67 47 0.0 1.0 0.00 0.01 0.01 96 1018.1
20260906113003 67 47 0.0 0.0 0.00 0.01 0.01 96 1018.1
20260906112911 67 47 0.0 0.0 0.00 0.01 0.01 96 1018.0
20260906112803 67 47 0.0 0.0 0.00 0.01 0.01 96 1018.0
20260906112603 67 47 0.0 0.0 0.00 0.01 0.01 96 1018.0
20260906112403 67 47 0.0 0.0 0.00 0.01 0.01 96 1018.0
20260906112252 67 47 0.0 0.0 0.00 0.01 0.01 96 1018.0
20260906112209 68 47 0.0 0.0 0.00 0.01 0.01 96 1018.0
20260906112204 67 47 0.0 0.0 0.00 0.01 0.01 96 1018.0
20260906112050 68 47 0.0 0.0 0.00 0.01 0.01 96 1018.0
20260906112036 67 47 0.0 0.0 0.00 0.01 0.01 96 1018.1
20260906111604 68 47 0.0 0.0 0.00 0.01 0.01 96 1018.0
20260906111402 68 47 0.0 0.0 0.00 0.01 0.01 96 1018.0
20260906111251 68 47 0.0 0.0 0.00 0.01 0.01 96 1018.1
20260906111202 68 47 0.0 0.0 0.00 0.01 0.01 96 1018.0
20260906111105 68 47 0.0 0.0 0.00 0.01 0.01 96 1018.2
20260906111046 68 47 0.0 0.0 0.00 0.01 0.01 96 1018.2
20260906111033 68 47 0.0 0.0 0.00 0.01 0.01 96 1018.1
20260906110602 68 47 0.0 0.0 0.00 0.01 0.01 96 1018.1
20260906110459 68 47 0.0 0.0 0.00 0.01 0.01 96 1018.2
20260906110248 68 47 0.0 0.0 0.00 0.01 0.01 96 1018.0
20260906110204 68 47 0.0 0.0 0.00 0.01 0.01 96 1018.1
20260906110047 68 47 0.0 0.0 0.00 0.01 0.01 96 1017.9
20260906110034 68 47 0.0 0.0 0.00 0.01 0.01 96 1018.0
20260906110011 68 47 0.0 0.0 0.00 0.01 0.01 96 1017.9
20260906105605 68 47 0.0 0.0 0.00 0.01 0.01 96 1017.9
20260906105457 68 47 0.0 0.0 0.00 0.01 0.01 96 1017.9
20260906105245 68 47 0.0 0.0 0.00 0.01 0.01 96 1017.9
20260906105156 68 47 0.0 0.0 0.00 0.01 0.01 96 1017.8
20260906105055 68 47 0.0 0.0 0.00 0.01 0.01 96 1017.8
20260906104749 68 47 0.0 0.0 0.00 0.01 0.01 96 1017.9
20260906104552 68 47 0.0 0.0 0.00 0.01 0.01 96 1017.8
20260906104351 68 47 0.0 0.0 0.00 0.01 0.01 96 1017.8
20260906104251 68 47 0.0 0.0 0.00 0.01 0.01 96 1017.8
20260906104147 68 47 0.0 0.0 0.00 0.01 0.01 96 1017.8
20260906104047 68 47 0.0 1.0 0.00 0.01 0.01 96 1017.9
20260906103753 68 47 0.0 1.0 0.00 0.01 0.01 96 1017.9
20260906103548 68 47 0.0 1.0 0.00 0.01 0.01 96 1017.9
20260906103527 68 47 0.0 1.0 0.00 0.01 0.01 96 1017.9
20260906103506 68 47 0.0 1.0 0.00 0.01 0.01 96 1017.9
20260906103132 68 47 0.0 1.0 0.00 0.01 0.01 96 1017.9
20260906102932 69 47 0.0 0.0 0.00 0.01 0.01 96 1017.9
20260906102753 69 47 0.0 0.0 0.00 0.01 0.01 96 1017.9
20260906102730 69 47 0.0 0.0 0.00 0.01 0.01 96 1017.8
20260906102517 69 47 0.0 0.0 0.00 0.01 0.01 96 1017.9
20260906102501 69 47 0.0 0.0 0.00 0.01 0.01 96 1017.8
20260906102133 69 47 0.0 0.0 0.00 0.01 0.01 96 1017.9
20260906101934 69 47 0.0 0.0 0.00 0.01 0.01 96 1017.9
20260906101734 0 47 0.0 0.0 0.00 0.01 0.01 1017.9
20260906101348 0 0.0 0.0 0.00 0.01 0.01
20260906101340 0 0.0 0.0 0.00 0.01 0.01
20260906101320 0 0.0 0.0 0.00 0.01 0.01
20260906100706 0 0.0 0.0 0.00 0.01 0.01
20260906100605 0 0.0 0.0 0.00 0.01 0.01
20260906100435 0 0.0 0.0 0.00 0.01 0.01
20260906100235 0 0.0 0.0 0.00 0.01 0.01 1017.6
20260906100035 0 0.0 0.0 0.00 0.01 0.01 1017.6
20260906095934 69 44 0.0 0.0 0.00 0.01 0.01 96 1017.6
20260906095634 69 44 0.0 0.0 0.00 0.01 0.01 96 1017.6
20260906095517 69 44 0.0 0.0 0.00 0.01 0.01 96 1017.7
20260906095509 69 44 0.0 0.0 0.00 0.01 0.01 96 1017.6
20260906095208 69 44 0.0 0.0 0.00 0.01 0.01 96 1017.6
20260906095010 69 44 0.0 0.0 0.00 0.01 0.01 96 1017.6
20260906094808 69 44 0.0 0.0 0.00 0.01 0.01 96 1017.5
20260906094609 69 44 0.0 0.0 0.00 0.01 0.01 96 1017.5
20260906094520 69 44 0.0 0.0 0.00 0.01 0.01 96 1017.5
20260906094509 69 44 0.0 0.0 0.00 0.01 0.01 96 1017.5
20260906094208 69 44 0.0 0.0 0.00 0.01 0.01 96 1017.5
20260906094119 69 44 0.0 0.0 0.00 0.01 0.01 96 1017.5
20260906094011 69 44 0.0 0.0 0.00 0.01 0.01 96 1017.5
20260906093809 69 44 0.0 0.0 0.00 0.01 0.01 96 1017.4
20260906093611 69 44 0.0 0.0 0.00 0.01 0.01 96 1017.5
20260906093509 69 44 0.0 0.0 0.00 0.01 0.01 96 1017.4
20260906093409 69 44 0.0 0.0 0.00 0.01 0.01 96 1017.4
20260906093209 69 44 0.0 0.0 0.00 0.01 0.01 96 1017.4
20260906093112 69 44 0.0 1.0 0.00 0.01 0.01 96 1017.4
20260906093011 69 44 0.0 1.0 0.00 0.01 0.01 96 1017.4
20260906092809 69 44 0.0 1.0 0.00 0.01 0.01 96 1017.3
20260906092707 69 44 0.0 1.0 0.00 0.01 0.01 96 1017.3
20260906092508 69 44 0.0 1.0 0.00 0.01 0.01 96 1017.3
20260906092410 69 44 0.0 2.0 0.00 0.01 0.01 96 1017.2
20260906092211 69 44 0.0 4.0 0.00 0.01 0.01 96 1017.2
20260906092010 69 44 0.0 4.0 0.00 0.01 0.01 96 1017.2
20260906091809 69 45 0.0 4.0 0.00 0.01 0.01 96 1017.1
20260906091609 69 45 0.0 4.0 0.00 0.01 0.01 96 1017.1
20260906091509 69 45 0.0 4.0 0.00 0.01 0.01 96 1017.1
20260906091411 69 45 0.0 4.0 0.00 0.01 0.01 95 1017.0
20260906091209 69 55 0.0 3.0 0.00 0.01 0.01 95 1017.0
20260906091026 69 55 0.0 3.0 0.00 0.01 0.01 96 1017.0
20260906091009 69 55 0.0 3.0 0.00 0.01 0.01 96 1017.0
20260906090609 70 58 0.0 3.0 0.00 0.01 0.01 96 1017.0
20260906090508 70 58 0.0 3.0 0.00 0.01 0.01 96 1017.0
20260906090409 70 58 0.0 4.0 0.00 0.01 0.01 96 1017.1
20260906090210 70 49 0.0 4.0 0.00 0.01 0.01 96 1017.1
20260906090011 70 48 0.0 4.0 0.00 0.01 0.01 96 1017.1
20260906085809 70 48 0.0 4.0 0.00 0.01 0.01 96 1017.1
20260906085615 70 47 0.0 2.0 0.00 0.01 0.01 95 1017.1
20260906085608 70 48 0.0 4.0 0.00 0.01 0.01 96 1017.1
20260906085508 70 48 0.0 4.0 0.00 0.01 0.01 95 1017.1
20260906085209 70 44 0.0 2.0 0.00 0.01 0.01 95 1017.2
20260906085009 70 42 0.0 3.0 0.00 0.01 0.01 95 1017.2
20260906084809 70 42 0.0 3.0 0.00 0.01 0.01 95 1017.1
20260906084609 70 42 0.0 3.0 0.00 0.01 0.01 95 1017.2
20260906084508 70 42 0.0 3.0 0.00 0.01 0.01 95 1017.1
20260906084408 70 42 0.0 3.0 0.00 0.01 0.01 95 1017.1
20260906084209 70 42 0.0 3.0 0.00 0.01 0.01 95 1017.1
20260906084009 70 44 0.0 3.0 0.00 0.01 0.01 95 1017.1
20260906083809 70 65 0.0 2.0 0.00 0.01 0.01 95 1017.0
20260906083609 70 44 0.0 2.0 0.00 0.01 0.01 95 1016.9
20260906083507 70 41 0.0 2.0 0.00 0.01 0.01 95 1016.9
20260906083409 70 41 0.0 2.0 0.00 0.01 0.01 95 1016.9
20260906083213 70 41 0.0 1.0 0.00 0.01 0.01 95 1016.9
20260906083111 70 39 0.0 2.0 0.00 0.01 0.01 95 1016.9
20260906083009 70 39 0.0 2.0 0.00 0.01 0.01 95 1016.9
20260906082811 70 39 0.0 2.0 0.00 0.01 0.01 95 1016.9
20260906082710 70 39 0.0 2.0 0.00 0.01 0.01 96 1016.8
20260906082509 70 39 0.0 3.0 0.00 0.01 0.01 96 1016.9
20260906082408 70 39 0.0 3.0 0.00 0.01 0.01 96 1016.8
20260906082211 70 39 0.0 3.0 0.00 0.01 0.01 96 1016.9
20260906082009 70 39 0.0 3.0 0.00 0.01 0.01 96 1016.9
20260906081810 70 20 0.0 3.0 0.00 0.01 0.01 95 1016.8
20260906081710 70 47 0.0 4.0 0.00 0.01 0.01 95 1016.8
20260906081508 70 39 0.0 4.0 0.00 0.01 0.01 95 1016.8
20260906081410 70 39 0.0 4.0 0.00 0.01 0.01 96 1016.8
20260906081308 70 41 0.0 4.0 0.00 0.01 0.01 96 1016.9
20260906081009 70 38 0.0 4.0 0.00 0.01 0.01 96 1016.8
20260906080809 70 52 0.0 4.0 0.00 0.01 0.01 95 1016.9
20260906080609 70 44 0.0 4.0 0.00 0.01 0.01 95 1016.9
20260906080507 70 45 0.0 4.0 0.00 0.01 0.01 95 1016.9
20260906080410 70 47 0.0 4.0 0.00 0.01 0.01 95 1016.8
20260906080311 70 48 0.0 4.0 0.00 0.01 0.01 95 1016.9
20260906080011 70 48 0.0 6.0 0.00 0.01 0.01 95 1016.9
20260906075809 70 39 0.0 6.0 0.00 0.01 0.01 95 1016.9
20260906075708 70 42 0.0 6.0 0.00 0.01 0.01 95 1016.9
20260906075517 70 41 0.0 6.0 0.00 0.01 0.01 96 1016.9
20260906075508 70 41 0.0 6.0 0.00 0.01 0.01 95 1016.9
20260906075208 70 97 0.0 6.0 0.00 0.01 0.01 95 1016.9
20260906075009 70 66 0.0 3.0 0.00 0.01 0.01 95 1016.9
20260906074809 70 96 0.0 3.0 0.00 0.01 0.01 95 1016.9
20260906074801 70 44 0.0 3.0 0.00 0.01 0.01 95 1016.9
20260906074736 70 44 0.0 3.0 0.00 0.01 0.01 95 1016.9
20260906074409 71 37 0.0 4.0 0.00 0.01 0.01 95 1016.9
20260906074313 70 44 0.0 4.0 0.00 0.01 0.01 95 1016.9
20260906074113 71 42 0.0 4.0 0.00 0.01 0.01 95 1016.9
20260906074009 71 42 0.0 4.0 0.00 0.01 0.01 95 1016.9
20260906073810 71 41 0.0 4.0 0.00 0.01 0.01 95 1016.9
20260906073758 71 41 0.0 4.0 0.00 0.01 0.01 95 1017.0
20260906073737 71 41 0.0 4.0 0.00 0.01 0.01 95 1017.0
20260906073409 71 42 0.0 3.0 0.00 0.01 0.01 95 1017.1
20260906073209 71 41 0.0 3.0 0.00 0.01 0.01 95 1017.1
20260906073009 71 41 0.0 3.0 0.00 0.01 0.01 95 1017.0
20260906072937 71 42 0.0 0.0 0.00 0.01 0.01 95 1017.0
20260906072809 71 45 0.0 2.0 0.00 0.01 0.01 95 1017.0
20260906072755 71 42 0.0 0.0 0.00 0.01 0.01 95 1017.0
20260906072409 71 42 0.0 0.0 0.00 0.01 0.01 95 1017.1
20260906072209 71 42 0.0 0.0 0.00 0.01 0.01 95 1017.1
20260906072008 71 44 0.0 0.0 0.00 0.01 0.01 95 1017.2
20260906071841 71 39 0.0 0.0 0.00 0.01 0.01 95 1017.2
20260906071808 71 41 0.0 0.0 0.00 0.01 0.01 95 1017.2
20260906071758 71 41 0.0 0.0 0.00 0.01 0.01 95 1017.3
20260906071754 71 41 0.0 0.0 0.00 0.01 0.01 95 1017.3
20260906071209 71 39 0.0 0.0 0.00 0.01 0.01 95 1017.3
20260906071009 71 37 0.0 0.0 0.00 0.01 0.01 95 1017.2
20260906070805 71 35 0.0 0.0 0.01 0.01 0.01 95 1017.3
20260906070659 71 34 0.0 0.0 0.01 0.01 0.01 95 1017.4
20260906070510 71 34 0.0 0.0 0.01 0.01 0.01 95 1017.4
20260906070404 71 34 0.0 0.0 0.01 0.01 0.01 95 1017.4
20260906070300 71 34 0.0 0.0 0.01 0.00 0.01 95 1017.3
20260906070247 71 35 0.0 0.0 0.01 0.01 0.01 95 1017.4
20260906065804 71 34 0.0 0.0 0.01 0.00 0.01 95 1017.4
20260906065602 71 32 0.0 0.0 0.01 0.00 0.01 95 1017.4
20260906065501 71 31 0.0 0.0 0.01 0.00 0.01 95 1017.4
20260906065403 71 31 0.0 0.0 0.01 0.00 0.01 95 1017.4
20260906065346 71 31 0.0 0.0 0.01 0.00 0.01 95 1017.3
20260906065300 71 3 0.0 0.0 0.01 0.00 0.01 95 1017.4
20260906065213 71 3 0.0 0.0 0.01 0.00 0.01 95 1017.4
20260906064802 71 0 0.0 0.0 0.01 0.00 0.01 95 1017.4
20260906064709 71 1 0.0 0.0 0.01 0.00 0.01 95 1017.5
20260906064501 71 35 0.0 0.0 0.01 0.00 0.01 95 1017.4
20260906064401 71 44 0.0 0.0 0.01 0.00 0.01 95 1017.5
20260906064258 71 44 0.0 0.0 0.01 0.00 0.01 95 1017.4
20260906064245 71 47 0.0 0.0 0.01 0.00 0.01 95 1017.5
20260906064217 71 44 0.0 0.0 0.01 0.00 0.01 95 1017.4
20260906063848 71 31 0.0 0.0 0.01 0.00 0.01 95 1017.5
20260906063546 71 32 0.0 0.0 0.01 0.00 0.01 95 1017.5
20260906063455 71 34 0.0 0.0 0.01 0.00 0.01 95 1017.5
20260906063344 71 32 0.0 0.0 0.01 0.00 0.01 95 1017.5
20260906063143 71 32 0.0 0.0 0.01 0.00 0.01 95 1017.4
20260906063040 71 32 0.0 0.0 0.01 0.00 0.01 95 1017.4
20260906062954 71 32 0.0 0.0 0.01 0.00 0.01 95 1017.4
20260906062743 71 32 0.0 0.0 0.01 0.00 0.01 95 1017.5
20260906062544 71 32 0.0 0.0 0.01 0.00 0.01 95 1017.5
20260906062450 71 55 0.0 0.0 0.01 0.00 0.01 95 1017.4
20260906062436 71 51 0.0 0.0 0.01 0.00 0.01 95 1017.4
20260906062138 71 109 0.0 0.0 0.01 0.00 0.01 95 1017.4
20260906061951 71 34 0.0 0.0 0.01 0.00 0.01 95 1017.4
20260906061934 71 16 0.0 0.0 0.01 0.00 0.01 95 1017.4
20260906061732 71 6 0.0 0.0 0.01 0.00 0.01 95 1017.4
20260906061631 71 0 0.0 0.0 0.01 0.00 0.01 95 1017.5
20260906061448 71 0 0.0 0.0 0.01 0.00 0.01 95 1017.6
20260906061329 71 0 0.0 0.0 0.01 0.00 0.01 95 1017.6
20260906061126 71 0 0.0 0.0 0.01 0.00 0.01 95 1017.5
20260906061034 71 0 0.0 0.0 0.01 0.00 0.00 95 1017.5
20260906060948 71 0 0.0 0.0 0.01 0.00 0.00 95 1017.5
20260906060728 71 0 0.0 0.0 0.00 0.00 0.00 95 1017.5
20260906060530 72 0 0.0 0.0 0.00 0.00 0.00 95 1017.5
20260906060445 71 0 0.0 0.0 0.00 0.00 0.00 95 1017.5
20260906060317 71 0 0.0 0.0 0.00 0.00 0.00 95 1017.5
20260906060217 72 0 0.0 0.0 0.00 0.00 0.00 95 1017.5
20260906055951 72 0 0.0 0.0 0.00 0.00 0.00 95 1017.4
20260906055914 72 0 0.0 0.0 0.00 0.00 0.00 95 1017.4
20260906055714 72 0 0.0 0.0 0.00 0.00 0.00 95 1017.4
20260906055516 72 61 0.0 0.0 0.00 0.00 0.00 95 1017.5
20260906055431 72 61 0.0 0.0 0.00 0.00 0.00 95 1017.5
20260906055310 72 61 0.0 0.0 0.00 0.00 0.00 95 1017.4
20260906055107 72 140 0.0 0.0 0.00 0.00 0.00 95 1017.5
20260906054905 72 140 0.0 0.0 0.00 0.00 0.00 94 1017.5
20260906054704 72 140 0.0 0.0 0.00 0.00 0.00 94 1017.5
20260906054506 72 140 0.0 0.0 0.00 0.00 0.00 94 1017.5
20260906054435 72 140 0.0 0.0 0.00 0.00 0.00 94 1017.5
20260906054347 72 140 0.0 0.0 0.00 0.00 0.00 94 1017.5
20260906054305 72 140 0.0 0.0 0.00 0.00 0.00 94 1017.5
20260906054153 72 140 0.0 0.0 0.00 0.00 0.00 94 1017.4
20260906053857 72 140 0.0 0.0 0.00 0.00 0.00 94 1017.5
20260906053657 72 140 0.0 0.0 0.00 0.00 0.00 94 1017.5
20260906053456 72 140 0.0 0.0 0.00 0.00 0.00 94 1017.5
20260906053410 72 140 0.0 0.0 0.00 0.00 0.00 94 1017.5
20260906053252 72 140 0.0 0.0 0.00 0.00 0.00 94 1017.4
20260906053159 72 140 0.0 0.0 0.00 0.00 0.00 94 1017.4
20260906053145 72 140 0.0 0.0 0.00 0.00 0.00 94 1017.4
20260906052854 72 140 0.0 0.0 0.00 0.00 0.00 94 1017.4
20260906052838 72 140 0.0 0.0 0.00 0.00 0.00 94 1017.5
20260906052445 72 140 0.0 0.0 0.00 0.00 0.00 94 1017.4
20260906052409 72 140 0.0 0.0 0.00 0.00 0.00 94 1017.4
20260906052243 72 140 0.0 0.0 0.00 0.00 0.00 94 1017.5
20260906052204 72 140 0.0 0.0 0.00 0.00 0.00 94 1017.5
20260906052146 72 140 0.0 0.0 0.00 0.00 0.00 94 1017.4
20260906051842 72 140 0.0 0.0 0.00 0.00 0.00 94 1017.4
20260906051643 72 140 0.0 0.0 0.00 0.00 0.00 94 1017.4
20260906051439 72 140 0.0 0.0 0.00 0.00 0.00 94 1017.5
20260906051408 72 140 0.0 0.0 0.00 0.00 0.00 94 1017.5
20260906051238 72 140 0.0 0.0 0.00 0.00 0.00 94 1017.5
20260906051140 72 140 0.0 0.0 0.00 0.00 0.00 94 1017.6
20260906050908 72 140 0.0 0.0 0.00 0.00 0.00 94 1017.5
20260906050839 72 140 0.0 0.0 0.00 0.00 0.00 94 1017.6
20260906050631 72 140 0.0 0.0 0.00 0.00 0.00 94 1017.6
20260906050407 72 140 0.0 0.0 0.00 0.00 0.00 94 1017.6
20260906050234 72 140 0.0 0.0 0.00 0.00 0.00 94 1017.6
20260906050107 72 140 0.0 0.0 0.00 0.00 0.00 94 1017.7
20260906045907 72 140 0.0 0.0 0.00 0.00 0.00 94 1017.7
20260906045807 72 140 0.0 0.0 0.00 0.00 0.00 94 1017.7
20260906045709 72 140 0.0 0.0 0.00 0.00 0.00 94 1017.7
20260906045412 72 140 0.0 0.0 0.00 0.00 0.00 94 1017.7
20260906045206 72 140 0.0 0.0 0.00 0.00 0.00 94 1017.7
20260906045007 72 140 0.0 0.0 0.00 0.00 0.00 94 1017.7
20260906044912 72 140 0.0 0.0 0.00 0.00 0.00 94 1017.7
20260906044805 72 140 0.0 0.0 0.00 0.00 0.00 94 1017.7
20260906044707 72 140 0.0 0.0 0.00 0.00 0.00 94 1017.7
20260906044409 72 140 0.0 0.0 0.00 0.00 0.00 94 1017.7
20260906044302 72 140 0.0 0.0 0.00 0.00 0.00 94 1017.8
20260906044008 72 140 0.0 0.0 0.00 0.00 0.00 94 1017.8
20260906043911 72 140 0.0 0.0 0.00 0.00 0.00 94 1017.8
20260906043807 72 140 0.0 0.0 0.00 0.00 0.00 94 1017.8
20260906043605 72 140 0.0 0.0 0.00 0.00 0.00 94 1017.8
20260906043407 0 0.0 0.0 0.00 0.00 0.00 1017.7
20260906043107 0 0.0 0.0 0.00 0.00 0.00
20260906042839 0 0.0 0.0 0.00 0.00 0.00
20260906042734 0 0.0 0.0 0.00 0.00 0.00
20260906042603 0 0.0 0.0 0.00 0.00 0.00
20260906042435 0 0.0 0.0 0.00 0.00 0.00
20260906042338 0 0.0 0.0 0.00 0.00 0.00
20260906042102 0 0.0 0.0 0.00 0.00 0.00
20260906042007 0 0.0 0.0 0.00 0.00 0.00
20260906041840 0 0.0 0.0 0.00 0.00 0.00 1017.8
20260906041818 0 0.0 0.0 0.00 0.00 0.00 1017.8
20260906041406 72 140 0.0 0.0 0.00 0.00 0.00 93 1017.8
20260906041309 72 140 0.0 0.0 0.00 0.00 0.00 93 1017.8
20260906041051 72 140 0.0 0.0 0.00 0.00 0.00 93 1017.8
20260906040952 72 140 0.0 0.0 0.00 0.00 0.00 93 1017.8
20260906040917 72 140 0.0 0.0 0.00 0.00 0.00 93 1017.8
20260906040801 72 140 0.0 0.0 0.00 0.00 0.00 93 1017.8
20260906040352 72 140 0.0 0.0 0.00 0.00 0.00 93 1017.8
20260906040151 72 140 0.0 0.0 0.00 0.00 0.00 92 1017.8
20260906040036 72 140 0.0 0.0 0.00 0.00 0.00 92 1017.9
20260906035952 72 140 0.0 0.0 0.00 0.00 0.00 92 1017.9
20260906035922 72 140 0.0 0.0 0.00 0.00 0.00 92 1017.8
20260906035830 72 140 0.0 0.0 0.00 0.00 0.00 92 1017.8
20260906035754 72 140 0.0 0.0 0.00 0.00 0.00 92 1017.8
20260906035453 72 140 0.0 0.0 0.00 0.00 0.00 92 1017.8
20260906035151 72 140 0.0 0.0 0.00 0.00 0.00 92 1017.8
20260906035030 72 140 0.0 0.0 0.00 0.00 0.00 92 1017.8
20260906034951 72 140 0.0 0.0 0.00 0.00 0.00 92 1017.8
20260906034753 72 140 0.0 0.0 0.00 0.00 0.00 92 1017.8
20260906034531 73 140 0.0 0.0 0.00 0.00 0.00 92 1017.7
20260906034452 73 140 0.0 0.0 0.00 0.00 0.00 92 1017.7
20260906034150 73 140 0.0 0.0 0.00 0.00 0.00 92 1017.7
20260906034053 73 140 0.0 0.0 0.00 0.00 0.00 92 1017.7
20260906034011 73 140 0.0 0.0 0.00 0.00 0.00 92 1017.7
20260906033811 73 140 0.0 0.0 0.00 0.00 0.00 92 1017.7
20260906033804 73 140 0.0 0.0 0.00 0.00 0.00 92 1017.8
20260906033736 73 140 0.0 0.0 0.00 0.00 0.00 92 1017.6
20260906033351 73 140 0.0 0.0 0.00 0.00 0.00 92 1017.7
20260906033156 73 140 0.0 0.0 0.00 0.00 0.00 91 1017.7
20260906033052 73 140 0.0 0.0 0.00 0.00 0.00 91 1017.7
20260906033013 73 140 0.0 0.0 0.00 0.00 0.00 91 1017.7
20260906032834 73 140 0.0 0.0 0.00 0.00 0.00 91 1017.7
20260906032802 73 140 0.0 0.0 0.00 0.00 0.00 91 1017.7
20260906032756 73 140 0.0 0.0 0.00 0.00 0.00 91 1017.7
20260906032351 73 140 0.0 0.0 0.00 0.00 0.00 91 1017.8
20260906032152 73 140 0.0 0.0 0.00 0.00 0.00 91 1017.6
20260906032008 73 140 0.0 0.0 0.00 0.00 0.00 91 1017.7
20260906031951 73 140 0.0 0.0 0.00 0.00 0.00 91 1017.7
20260906031828 73 140 0.0 0.0 0.00 0.00 0.00 91 1017.7
20260906031755 73 140 0.0 0.0 0.00 0.00 0.00 91 1017.6
20260906031751 73 140 0.0 0.0 0.00 0.00 0.00 91 1017.6
20260906031347 73 140 0.0 0.0 0.00 0.00 0.00 91 1017.6
20260906031247 73 140 0.0 0.0 0.00 0.00 0.00 91 1017.6
20260906031003 73 140 0.0 0.0 0.00 0.00 0.00 91 1017.6
20260906030946 73 140 0.0 0.0 0.00 0.00 0.00 91 1017.7
20260906030746 73 140 0.0 0.0 0.00 0.00 0.00 91 1017.8
20260906030546 73 140 0.0 0.0 0.00 0.00 0.00 91 1017.8
20260906030516 73 140 0.0 0.0 0.00 0.00 0.00 91 1017.8
20260906030341 73 140 0.0 0.0 0.00 0.00 0.00 91 1017.8
20260906030242 73 140 0.0 0.0 0.00 0.00 0.00 91 1017.9
20260906030002 73 140 0.0 0.0 0.00 0.00 0.00 91 1017.8
20260906025933 73 140 0.0 0.0 0.00 0.00 0.00 91 1017.7
20260906025832 73 140 0.0 0.0 0.00 0.00 0.00 91 1017.7
20260906025503 73 140 0.0 0.0 0.00 0.00 0.00 91 1017.8
20260906025332 74 140 0.0 0.0 0.00 0.00 0.00 91 1017.9
20260906025130 74 140 0.0 0.0 0.00 0.00 0.00 91 1017.9
20260906025006 74 140 0.0 0.0 0.00 0.00 0.00 91 1017.9
20260906024930 74 140 0.0 0.0 0.00 0.00 0.00 91 1017.9
20260906024829 74 140 0.0 0.0 0.00 0.00 0.00 91 1017.9
20260906024532 74 140 0.0 0.0 0.00 0.00 0.00 91 1018.0
20260906024502 74 140 0.0 0.0 0.00 0.00 0.00 90 1018.0
20260906024428 74 140 0.0 0.0 0.00 0.00 0.00 91 1018.0
20260906024116 74 140 0.0 0.0 0.00 0.00 0.00 90 1018.0
20260906024004 74 140 0.0 0.0 0.00 0.00 0.00 90 1018.0
20260906023915 74 140 0.0 0.0 0.00 0.00 0.00 91 1018.0
20260906023713 74 140 0.0 0.0 0.00 0.00 0.00 90 1017.8
20260906023515 74 140 0.0 0.0 0.00 0.00 0.00 90 1017.8
20260906023501 74 140 0.0 0.0 0.00 0.00 0.00 90 1017.8
20260906023409 74 140 0.0 0.0 0.00 0.00 0.00 90 1017.8
20260906023111 74 140 0.0 0.0 0.00 0.00 0.00 90 1017.7
20260906022959 74 140 0.0 0.0 0.00 0.00 0.00 90 1017.7
20260906022906 74 140 0.0 0.0 0.00 0.00 0.00 90 1017.7
20260906022707 74 140 0.0 0.0 0.00 0.00 0.00 90 1017.7
20260906022510 74 140 0.0 0.0 0.00 0.00 0.00 90 1017.6
20260906022501 74 140 0.0 0.0 0.00 0.00 0.00 90 1017.6
20260906022404 74 140 0.0 0.0 0.00 0.00 0.00 90 1017.7
20260906022103 74 140 0.0 0.0 0.00 0.00 0.00 90 1017.6
20260906022014 74 140 0.0 0.0 0.00 0.00 0.00 90 1017.5
20260906021959 74 140 0.0 0.0 0.00 0.00 0.00 90 1017.6
20260906021702 74 140 0.0 0.0 0.00 0.00 0.00 90 1017.6
20260906021504 74 140 0.0 0.0 0.00 0.00 0.00 90 1017.4
20260906021453 74 140 0.0 0.0 0.00 0.00 0.00 90 1017.4
20260906021303 74 140 0.0 0.0 0.00 0.00 0.00 90 1017.5
20260906021103 74 140 0.0 0.0 0.00 0.00 0.00 89 1017.3
20260906020954 74 140 0.0 0.0 0.00 0.00 0.00 89 1017.3
20260906020702 74 140 0.0 0.0 0.00 0.00 0.00 89 1017.1
20260906020604 74 140 0.0 0.0 0.00 0.00 0.00 89 1017.1
20260906020453 74 140 0.0 0.0 0.00 0.00 0.00 89 1017.1
20260906020301 74 140 0.0 0.0 0.00 0.00 0.00 89 1017.1
20260906020057 74 140 0.0 0.0 0.00 0.00 0.00 88 1017.1
20260906015952 74 140 0.0 0.0 0.00 0.00 0.00 88 1017.0
20260906015857 74 140 0.0 0.0 0.00 0.00 0.00 88 1017.0
20260906015656 75 140 0.0 0.0 0.00 0.00 0.00 88 1016.9
20260906015558 75 140 0.0 0.0 0.00 0.00 0.00 88 1016.8
20260906015452 75 140 0.0 0.0 0.00 0.00 0.00 88 1016.8
20260906015256 75 140 0.0 0.0 0.00 0.00 0.00 88 1016.7
20260906015055 75 140 0.0 0.0 0.00 0.00 0.00 88 1016.7
20260906014952 75 140 0.0 0.0 0.00 0.00 0.00 88 1016.7
20260906014856 75 140 0.0 0.0 0.00 0.00 0.00 88 1016.7
20260906014746 75 140 0.0 0.0 0.00 0.00 0.00 88 1016.6
20260906014734 75 140 0.0 0.0 0.00 0.00 0.00 88 1016.6
20260906014704 75 140 0.0 0.0 0.00 0.00 0.00 88 1016.6
20260906014249 75 140 0.0 0.0 0.00 0.00 0.00 88 1016.6
20260906014152 75 140 0.0 0.0 0.00 0.00 0.00 87 1016.5
20260906013956 75 140 0.0 0.0 0.00 0.00 0.00 87 1016.5
20260906013947 0 140 0.0 0.0 0.00 0.00 0.00 1016.5
20260906013647 0 131 0.0 0.0 0.00 0.00 0.00 1016.4
20260906013452 0 131 0.0 0.0 0.00 0.00 0.00 1016.4
20260906013205 0 0.0 0.0 0.00 0.00 0.00
20260906013106 0 0.0 0.0 0.00 0.00 0.00
20260906012838 0 0.0 0.0 0.00 0.00 0.00
20260906012635 0 0.0 0.0 0.00 0.00 0.00
20260906012534 0 0.0 0.0 0.00 0.00 0.00
20260906012306 0 0.0 0.0 0.00 0.00 0.00
20260906012131 0 0.0 0.0 0.00 0.00 0.00
20260906012006 0 0.0 0.0 0.00 0.00 0.00 1015.9
20260906011810 0 0.0 0.0 0.00 0.00 0.00 1015.9
20260906011631 0 0.0 0.0 0.00 0.00 0.00 1015.9
20260906011606 0 118 0.0 0.0 0.00 0.00 0.00 1015.9
20260906011335 77 118 0.0 0.0 0.00 0.00 0.00 84 1015.9
20260906011135 77 118 0.0 0.0 0.00 0.00 0.00 84 1015.9
20260906011035 77 118 0.0 0.0 0.00 0.00 0.00 84 1015.9
20260906010734 77 118 0.0 0.0 0.00 0.00 0.00 84 1016.0
20260906010613 77 118 0.0 0.0 0.00 0.00 0.00 84 1016.0
20260906010532 77 118 0.0 0.0 0.00 0.00 0.00 84 1016.0
20260906010518 77 71 0.0 0.0 0.00 0.00 0.00 84 1015.9
20260906010106 77 71 0.0 0.0 0.00 0.00 0.00 84 1015.9
20260906005910 77 71 0.0 0.0 0.00 0.00 0.00 83 1015.9
20260906005709 77 71 0.0 0.0 0.00 0.00 0.00 83 1015.9
20260906005603 77 71 0.0 0.0 0.00 0.00 0.00 83 1016.0
20260906005507 77 71 0.0 0.0 0.00 0.00 0.00 83 1015.9
20260906005306 77 68 0.0 0.0 0.00 0.00 0.00 83 1015.9
20260906005106 78 69 0.0 0.0 0.00 0.00 0.00 83 1015.9
20260906005100 78 69 0.0 0.0 0.00 0.00 0.00 83 1015.8
20260906004704 78 69 0.0 0.0 0.00 0.00 0.00 82 1015.8
20260906004603 78 68 0.0 0.0 0.00 0.00 0.00 82 1015.8
20260906004502 78 68 0.0 0.0 0.00 0.00 0.00 82 1015.8
20260906004303 78 68 0.0 0.0 0.00 0.00 0.00 82 1015.8
20260906004105 78 73 0.0 0.0 0.00 0.00 0.00 82 1015.8
20260906003902 78 78 0.0 0.0 0.00 0.00 0.00 82 1015.7
20260906003709 78 100 0.0 0.0 0.00 0.00 0.00 81 1015.7
20260906003704 78 121 0.0 0.0 0.00 0.00 0.00 82 1015.8
20260906003603 78 100 0.0 0.0 0.00 0.00 0.00 82 1015.8
20260906003301 79 102 0.0 0.0 0.00 0.00 0.00 81 1015.7
20260906003108 79 127 0.0 0.0 0.00 0.00 0.00 81 1015.7
20260906003103 79 23 0.0 0.0 0.00 0.00 0.00 81 1015.7
20260906002852 79 23 0.0 0.0 0.00 0.00 0.00 81 1015.6
20260906002748 79 58 0.0 0.0 0.00 0.00 0.00 80 1015.7
20260906002603 79 58 0.0 0.0 0.00 0.00 0.00 80 1015.7
20260906002446 79 58 0.0 0.0 0.00 0.00 0.00 80 1015.8
20260906002438 79 56 0.0 0.0 0.00 0.00 0.00 80 1015.7
20260906002349 79 32 0.0 0.0 0.00 0.00 0.00 80 1015.7
20260906002040 79 38 0.0 0.0 0.00 0.00 0.00 80 1015.7
20260906001842 79 168 0.0 0.0 0.00 0.00 0.00 80 1015.7
20260906001638 80 110 0.0 0.0 0.00 0.00 0.00 79 1015.6
20260906001603 80 110 0.0 0.0 0.00 0.00 0.00 79 1015.6
20260906001435 80 173 0.0 0.0 0.00 0.00 0.00 79 1015.7
20260906001334 80 173 0.0 0.0 0.00 0.00 0.00 79 1015.6
20260906001102 80 173 0.0 0.0 0.00 0.00 0.00 79 1015.5
20260906001034 80 23 0.0 0.0 0.00 0.00 0.00 79 1015.5
20260906000934 80 23 0.0 0.0 0.00 0.00 0.00 78 1015.5
20260906000607 80 159 0.0 0.0 0.00 0.00 0.00 77 1015.5
20260906000434 80 159 0.0 0.0 0.00 0.00 0.00 77 1015.5
20260906000207 80 106 0.0 0.0 0.00 0.00 0.00 77 1015.5
20260906000004 80 28 0.0 0.0 0.00 0.00 0.00 77 1015.4
20260905235904 81 162 0.0 0.0 0.00 0.00 0.00 77 1015.5
20260905235602 81 104 0.0 0.0 0.00 0.00 0.00 77 1015.5
20260905235534 81 37 0.0 0.0 0.00 0.00 0.00 76 1015.5
20260905235459 81 285 0.0 0.0 0.00 0.00 0.00 76 1015.4
20260905235203 81 4 0.0 0.0 0.00 0.00 0.00 76 1015.5
20260905235035 81 4 0.0 0.0 0.00 0.00 0.00 76 1015.4
20260905234931 81 4 0.0 0.0 0.00 0.00 0.00 76 1015.4
20260905234723 82 41 0.0 0.0 0.00 0.00 0.00 76 1015.5
20260905234522 82 75 0.0 0.0 0.00 0.00 0.00 76 1015.4
20260905234236 0 0.0 0.0 0.00 0.00 0.00
20260905234135 0 0.0 0.0 0.00 0.00 0.00
20260905234003 0 0.0 0.0 0.00 0.00 0.00
20260905233834 0 0.0 0.0 0.00 0.00 0.00
20260905233735 0 0.0 0.0 0.00 0.00 0.00
20260905233502 0 0.0 0.0 0.00 0.00 0.00
20260905233407 0 0.0 0.0 0.00 0.00 0.00
20260905233206 0 0.0 0.0 0.00 0.00 0.00
20260905233007 0 0.0 0.0 0.00 0.00 0.00 1015.4
20260905232807 0 0.0 0.0 0.00 0.00 0.00 1015.4
20260905232634 82 39 0.0 4.0 0.00 0.00 0.00 75 1015.4
20260905232435 82 39 0.0 7.0 0.00 0.00 0.00 75 1015.4
20260905232336 82 39 0.0 7.0 0.00 0.00 0.00 75 1015.4
20260905232210 82 39 0.0 7.0 0.00 0.00 0.00 75 1015.4
20260905231912 82 39 0.0 7.0 0.00 0.00 0.00 75 1015.3
20260905231712 82 39 0.0 7.0 0.00 0.00 0.00 75 1015.3
20260905231511 82 32 0.0 7.0 0.00 0.00 0.00 75 1015.2
20260905231410 82 25 0.0 5.0 0.00 0.00 0.00 75 1015.1
20260905231310 82 75 0.0 5.0 0.00 0.00 0.00 75 1015.1
20260905231211 82 4 0.0 5.0 0.00 0.00 0.00 75 1015.2
20260905230911 82 37 0.0 0.0 0.00 0.00 0.00 75 1015.2
20260905230710 82 41 0.0 0.0 0.00 0.00 0.00 75 1015.1
20260905230509 82 76 0.0 0.0 0.00 0.00 0.00 75 1015.1
20260905230408 82 45 0.0 0.0 0.00 0.00 0.00 75 1015.1
20260905230308 82 34 0.0 0.0 0.00 0.00 0.00 75 1015.1
20260905230244 82 51 0.0 0.0 0.00 0.00 0.00 76 1015.1
20260905230146 82 48 0.0 0.0 0.00 0.00 0.00 76 1015.1
20260905230138 82 42 0.0 0.0 0.00 0.00 0.00 76 1015.2
20260905225636 82 65 0.0 0.0 0.00 0.00 0.00 75 1015.1
20260905225435 82 158 0.0 0.0 0.00 0.00 0.00 76 1015.0
20260905225403 82 20 0.0 0.0 0.00 0.00 0.00 75 1015.1
20260905225232 82 21 0.0 0.0 0.00 0.00 0.00 75 1015.0
20260905225032 82 21 0.0 0.0 0.00 0.00 0.00 75 1015.0
20260905224902 82 25 0.0 2.0 0.00 0.00 0.00 75 1014.8
20260905224833 82 66 0.0 5.0 0.00 0.00 0.00 76 1014.8
20260905224709 82 66 0.0 7.0 0.00 0.00 0.00 76 1015.0
20260905224520 82 54 0.0 7.0 0.00 0.00 0.00 76 1014.8
20260905224403 82 39 0.0 7.0 0.00 0.00 0.00 76 1014.7
20260905224213 82 38 0.0 7.0 0.00 0.00 0.00 76 1014.8
20260905224012 82 31 0.0 7.0 0.00 0.00 0.00 76 1014.7
20260905223902 82 30 0.0 7.0 0.00 0.00 0.00 76 1014.7
20260905223808 82 48 0.0 7.0 0.00 0.00 0.00 76 1014.7
20260905223605 0 42 0.0 0.0 0.00 0.00 0.00 1014.7
20260905223407 0 0.0 0.0 0.00 0.00 0.00 1014.6
20260905223143 0 0.0 0.0 0.00 0.00 0.00
20260905223135 0 0.0 0.0 0.00 0.00 0.00
20260905222935 0 0.0 0.0 0.00 0.00 0.00
20260905222634 0 0.0 0.0 0.00 0.00 0.00
20260905222406 0 0.0 0.0 0.00 0.00 0.00
20260905222206 0 0.0 0.0 0.00 0.00 0.00
20260905222107 0 0.0 0.0 0.00 0.00 0.00 1014.5
20260905222005 0 0.0 0.0 0.00 0.00 0.00 1014.5
20260905221805 0 0.0 0.0 0.00 0.00 0.00 1014.5
20260905221637 82 86 0.0 0.0 0.00 0.00 0.00 79 1014.5
20260905221536 82 86 0.0 0.0 0.00 0.00 0.00 79 1014.5
20260905221334 82 86 0.0 0.0 0.00 0.00 0.00 79 1014.5
20260905221235 82 86 0.0 0.0 0.00 0.00 0.00 79 1014.5
20260905221033 82 86 0.0 0.0 0.00 0.00 0.00 79 1014.5
20260905220930 82 86 0.0 0.0 0.00 0.00 0.00 79 1014.5
20260905220728 82 86 0.0 0.0 0.00 0.00 0.00 79 1014.6
20260905220529 82 38 0.0 0.0 0.00 0.00 0.00 78 1014.7
20260905220509 82 0 0.0 0.0 0.00 0.00 0.00 78 1014.8
20260905220306 81 63 0.0 0.0 0.00 0.00 0.00 78 1014.8
20260905220200 81 61 0.0 0.0 0.00 0.00 0.00 78 1015.0
20260905220031 81 71 0.0 0.0 0.00 0.00 0.00 79 1015.0
20260905215901 81 72 0.0 0.0 0.00 0.00 0.00 78 1015.0
20260905215805 81 25 0.0 0.0 0.00 0.00 0.00 80 1014.8
20260905215529 81 25 0.0 0.0 0.00 0.00 0.00 80 1015.0
20260905215432 81 79 0.0 0.0 0.00 0.00 0.00 80 1015.0
20260905215231 81 39 0.0 0.0 0.00 0.00 0.00 80 1015.0
20260905215035 81 58 0.0 0.0 0.00 0.00 0.00 80 1015.0
20260905214829 81 34 0.0 0.0 0.00 0.00 0.00 80 1015.0
20260905214730 81 49 0.0 0.0 0.00 0.00 0.00 81 1015.1
20260905214514 81 37 0.0 0.0 0.00 0.00 0.00 81 1015.1
20260905214429 81 35 0.0 0.0 0.00 0.00 0.00 80 1015.1
20260905214233 81 65 0.0 0.0 0.00 0.00 0.00 80 1015.1
20260905214128 81 37 0.0 0.0 0.00 0.00 0.00 80 1015.2
20260905214013 81 37 0.0 0.0 0.00 0.00 0.00 80 1015.2
20260905213830 81 35 0.0 0.0 0.00 0.00 0.00 80 1015.2
20260905213758 81 24 0.0 0.0 0.00 0.00 0.00 80 1015.3
20260905213739 81 24 0.0 0.0 0.00 0.00 0.00 80 1015.4
20260905213500 81 24 0.0 0.0 0.00 0.00 0.00 80 1015.3
20260905213150 81 32 0.0 0.0 0.00 0.00 0.00 81 1015.3
20260905212933 81 45 0.0 0.0 0.00 0.00 0.00 81 1015.2
20260905212749 81 45 0.0 0.0 0.00 0.00 0.00 81 1015.2
20260905212649 81 45 0.0 0.0 0.00 0.00 0.00 80 1015.2
20260905212433 81 44 0.0 0.0 0.00 0.00 0.00 80 1015.2
20260905212348 81 45 0.0 0.0 0.00 0.00 0.00 80 1015.1
20260905212149 81 47 0.0 0.0 0.00 0.00 0.00 79 1015.1
20260905212038 81 44 0.0 0.0 0.00 0.00 0.00 80 1015.1
20260905211934 81 44 0.0 0.0 0.00 0.00 0.00 80 1015.1
20260905211731 81 34 0.0 0.0 0.00 0.00 0.00 80 1015.1
20260905211531 82 25 0.0 0.0 0.00 0.00 0.00 80 1015.1
20260905211431 82 0 0.0 0.0 0.00 0.00 0.00 79 1015.1
20260905211331 82 58 0.0 0.0 0.00 0.00 0.00 79 1015.1
20260905211231 82 42 0.0 0.0 0.00 0.00 0.00 79 1015.2
20260905210931 82 58 0.0 0.0 0.00 0.00 0.00 79 1015.1
20260905210729 82 8 0.0 0.0 0.00 0.00 0.00 79 1015.1
20260905210630 82 48 0.0 0.0 0.00 0.00 0.00 78 1015.1
20260905210449 82 69 0.0 0.0 0.00 0.00 0.00 78 1015.1
20260905210430 82 35 0.0 0.0 0.00 0.00 0.00 78 1015.1
20260905210129 82 45 0.0 0.0 0.00 0.00 0.00 78 1015.1
20260905205934 82 34 0.0 0.0 0.00 0.00 0.00 77 1015.1
20260905205737 82 17 0.0 0.0 0.00 0.00 0.00 78 1015.1
20260905205732 82 59 0.0 0.0 0.00 0.00 0.00 77 1015.1
20260905205723 83 13 0.0 0.0 0.00 0.00 0.00 78 1015.1
20260905205701 82 71 0.0 0.0 0.00 0.00 0.00 77 1015.1
20260905205130 0 8 0.0 0.0 0.00 0.00 0.00 1015.0
20260905205040 0 0.0 0.0 0.00 0.00 0.00 1015.0
20260905204935 0 0.0 0.0 0.00 0.00 0.00 1015.0
20260905204826 0 0.0 0.0 0.00 0.00 0.00
20260905204535 0 0.0 0.0 0.00 0.00 0.00